This is the latest recevied weather packets stored in our database for station/object DN9EM-2. If no packets are shown the sender has not sent any weather packets the latest 10 day(s).
| Time | Temp. | Humidity | Pressure | Rain* | Wind** | Luminosity | Snow |
|---|---|---|---|---|---|---|---|
| 1777583435 | 11.11° C | 63% | 1031 hPa | 0 mm | - | - | - |
| 1777582833 | 11.11° C | 64% | 1031 hPa | 0 mm | - | - | - |
| 1777582230 | 11.67° C | 63% | 1031 hPa | 0 mm | - | - | - |
| 1777581627 | 11.67° C | 64% | 1031.1 hPa | 0 mm | - | - | - |
| 1777581024 | 11.67° C | 63% | 1031 hPa | 0 mm | - | - | - |
| 1777580422 | 12.22° C | 63% | 1030.9 hPa | 0 mm | - | - | - |
| 1777579819 | 12.22° C | 64% | 1030.9 hPa | 0 mm | - | - | - |
| 1777579217 | 12.22° C | 63% | 1031 hPa | 0 mm | - | - | - |
| 1777578674 | 13.33° C | 60% | 1031 hPa | 0 mm | - | - | - |
| 1777578071 | 13.33° C | 56% | 1030.9 hPa | 0 mm | - | - | - |
| 1777577469 | 13.89° C | 55% | 1030.8 hPa | 0 mm | - | - | - |
| 1777576866 | 13.89° C | 55% | 1030.7 hPa | 0 mm | - | - | - |
| 1777576263 | 14.44° C | 54% | 1030.6 hPa | 0 mm | - | - | - |
| 1777575661 | 15° C | 53% | 1030.6 hPa | 0 mm | - | - | - |
| 1777575058 | 15° C | 53% | 1030.6 hPa | 0 mm | - | - | - |
| 1777574455 | 15.56° C | 53% | 1030.6 hPa | 0 mm | - | - | - |
| 1777573852 | 16.11° C | 53% | 1030.5 hPa | 0 mm | - | - | - |
| 1777573250 | 16.67° C | 51% | 1030.5 hPa | 0 mm | - | - | - |
| 1777572647 | 16.67° C | 50% | 1030.5 hPa | 0 mm | - | - | - |
| 1777572044 | 16.67° C | 51% | 1030.6 hPa | 0 mm | - | - | - |
| 1777571442 | 16.67° C | 51% | 1030.6 hPa | 0 mm | - | - | - |
| 1777570839 | 17.22° C | 51% | 1030.6 hPa | 0 mm | - | - | - |
| 1777570236 | 17.22° C | 49% | 1030.6 hPa | 0 mm | - | - | - |
| 1777569634 | 17.78° C | 50% | 1030.6 hPa | 0 mm | - | - | - |
| 1777569031 | 18.33° C | 46% | 1030.6 hPa | 0 mm | - | - | - |
* Rain latest hour (hover to see other rain measurements)
** Current wind speed in m/s (hover to see current wind gust speed)